Data supplied by UK-AIR on 8/11/2015
All Data GMT hour ending 
Status: R =Ratified P=Provisional,P*=As supplied
,,Lough Navar,,,,,,,,,,,,,,,,,,,,,,,
Date,time,"PM<sub>10</sub> particulate matter (Hourly measured)",status,unit,"Non-volatile PM<sub>10</sub> (Hourly measured)",status,unit,"Ozone",status,unit,"Volatile PM<sub>10</sub> (Hourly measured)",status,unit
 
01-01-2014,01:00,6.300,R,ugm-3 (TEOM FDMS),2.700,R,ugm-3 (TEOM FDMS),62.19932,R,ugm-3,3.600,R,ugm-3 (TEOM FDMS)
01-01-2014,02:00,7.400,R,ugm-3 (TEOM FDMS),5.500,R,ugm-3 (TEOM FDMS),61.60061,R,ugm-3,1.900,R,ugm-3 (TEOM FDMS)
01-01-2014,03:00,8.600,R,ugm-3 (TEOM FDMS),5.600,R,ugm-3 (TEOM FDMS),61.81681,R,ugm-3,3.000,R,ugm-3 (TEOM FDMS)
01-01-2014,04:00,12.100,R,ugm-3 (TEOM FDMS),8.000,R,ugm-3 (TEOM FDMS),59.27229,R,ugm-3,4.100,R,ugm-3 (TEOM FDMS)
01-01-2014,05:00,10.100,R,ugm-3 (TEOM FDMS),5.400,R,ugm-3 (TEOM FDMS),52.43702,R,ugm-3,4.700,R,ugm-3 (TEOM FDMS)
01-01-2014,06:00,8.600,R,ugm-3 (TEOM FDMS),4.100,R,ugm-3 (TEOM FDMS),52.18756,R,ugm-3,4.500,R,ugm-3 (TEOM FDMS)
01-01-2014,07:00,6.000,R,ugm-3 (TEOM FDMS),2.800,R,ugm-3 (TEOM FDMS),56.62799,R,ugm-3,3.200,R,ugm-3 (TEOM FDMS)
01-01-2014,08:00,7.500,R,ugm-3 (TEOM FDMS),5.300,R,ugm-3 (TEOM FDMS),55.58025,R,ugm-3,2.200,R,ugm-3 (TEOM FDMS)
01-01-2014,09:00,11.800,R,ugm-3 (TEOM FDMS),8.200,R,ugm-3 (TEOM FDMS),55.38068,R,ugm-3,3.600,R,ugm-3 (TEOM FDMS)
01-01-2014,10:00,10.900,R,ugm-3 (TEOM FDMS),7.500,R,ugm-3 (TEOM FDMS),54.88175,R,ugm-3,3.400,R,ugm-3 (TEOM FDMS)
01-01-2014,11:00,9.700,R,ugm-3 (TEOM FDMS),5.000,R,ugm-3 (TEOM FDMS),52.73637,R,ugm-3,4.700,R,ugm-3 (TEOM FDMS)
01-01-2014,12:00,9.000,R,ugm-3 (TEOM FDMS),4.500,R,ugm-3 (TEOM FDMS),61.36778,R,ugm-3,4.500,R,ugm-3 (TEOM FDMS)
01-01-2014,13:00,6.500,R,ugm-3 (TEOM FDMS),2.000,R,ugm-3 (TEOM FDMS),69.79961,R,ugm-3,4.500,R,ugm-3 (TEOM FDMS)
01-01-2014,14:00,4.900,R,ugm-3 (TEOM FDMS),0.900,R,ugm-3 (TEOM FDMS),67.75402,R,ugm-3,4.000,R,ugm-3 (TEOM FDMS)
01-01-2014,15:00,5.400,R,ugm-3 (TEOM FDMS),1.200,R,ugm-3 (TEOM FDMS),64.36133,R,ugm-3,4.200,R,ugm-3 (TEOM FDMS)
01-01-2014,16:00,4.600,R,ugm-3 (TEOM FDMS),2.900,R,ugm-3 (TEOM FDMS),59.17251,R,ugm-3,1.700,R,ugm-3 (TEOM FDMS)
01-01-2014,17:00,5.800,R,ugm-3 (TEOM FDMS),4.500,R,ugm-3 (TEOM FDMS),56.07917,R,ugm-3,1.300,R,ugm-3 (TEOM FDMS)
01-01-2014,18:00,7.400,R,ugm-3 (TEOM FDMS),5.200,R,ugm-3 (TEOM FDMS),56.17896,R,ugm-3,2.200,R,ugm-3 (TEOM FDMS)
01-01-2014,19:00,8.600,R,ugm-3 (TEOM FDMS),6.100,R,ugm-3 (TEOM FDMS),58.67358,R,ugm-3,2.500,R,ugm-3 (TEOM FDMS)
01-01-2014,20:00,9.500,R,ugm-3 (TEOM FDMS),8.300,R,ugm-3 (TEOM FDMS),61.81681,R,ugm-3,1.200,R,ugm-3 (TEOM FDMS)
01-01-2014,21:00,7.600,R,ugm-3 (TEOM FDMS),8.000,R,ugm-3 (TEOM FDMS),66.50670,R,ugm-3,-0.400,R,ugm-3 (TEOM FDMS)
01-01-2014,22:00,8.600,R,ugm-3 (TEOM FDMS),7.200,R,ugm-3 (TEOM FDMS),66.70627,R,ugm-3,1.400,R,ugm-3 (TEOM FDMS)
01-01-2014,23:00,7.600,R,ugm-3 (TEOM FDMS),7.900,R,ugm-3 (TEOM FDMS),65.10971,R,ugm-3,-0.300,R,ugm-3 (TEOM FDMS)
01-01-2014,24:00,12.900,R,ugm-3 (TEOM FDMS),12.100,R,ugm-3 (TEOM FDMS),69.05122,R,ugm-3,0.800,R,ugm-3 (TEOM FDMS)
02-01-2014,01:00,13.700,R,ugm-3 (TEOM FDMS),11.200,R,ugm-3 (TEOM FDMS),65.52548,R,ugm-3,2.500,R,ugm-3 (TEOM FDMS)
02-01-2014,02:00,11.800,R,ugm-3 (TEOM FDMS),11.400,R,ugm-3 (TEOM FDMS),62.73150,R,ugm-3,0.400,R,ugm-3 (TEOM FDMS)
02-01-2014,03:00,11.700,R,ugm-3 (TEOM FDMS),11.100,R,ugm-3 (TEOM FDMS),57.67573,R,ugm-3,0.600,R,ugm-3 (TEOM FDMS)
02-01-2014,04:00,12.100,R,ugm-3 (TEOM FDMS),10.600,R,ugm-3 (TEOM FDMS),58.82326,R,ugm-3,1.500,R,ugm-3 (TEOM FDMS)
02-01-2014,05:00,11.800,R,ugm-3 (TEOM FDMS),8.900,R,ugm-3 (TEOM FDMS),43.35658,R,ugm-3,2.900,R,ugm-3 (TEOM FDMS)
02-01-2014,06:00,7.500,R,ugm-3 (TEOM FDMS),6.100,R,ugm-3 (TEOM FDMS),60.91874,R,ugm-3,1.400,R,ugm-3 (TEOM FDMS)
02-01-2014,07:00,8.300,R,ugm-3 (TEOM FDMS),6.500,R,ugm-3 (TEOM FDMS),58.92304,R,ugm-3,1.800,R,ugm-3 (TEOM FDMS)
02-01-2014,08:00,8.200,R,ugm-3 (TEOM FDMS),6.500,R,ugm-3 (TEOM FDMS),59.57165,R,ugm-3,1.700,R,ugm-3 (TEOM FDMS)
02-01-2014,09:00,5.900,R,ugm-3 (TEOM FDMS),6.600,R,ugm-3 (TEOM FDMS),61.81681,R,ugm-3,-0.700,R,ugm-3 (TEOM FDMS)
02-01-2014,10:00,6.100,R,ugm-3 (TEOM FDMS),5.500,R,ugm-3 (TEOM FDMS),63.96219,R,ugm-3,0.600,R,ugm-3 (TEOM FDMS)
02-01-2014,11:00,5.700,R,ugm-3 (TEOM FDMS),5.000,R,ugm-3 (TEOM FDMS),63.66283,R,ugm-3,0.700,R,ugm-3 (TEOM FDMS)
02-01-2014,12:00,7.400,R,ugm-3 (TEOM FDMS),6.400,R,ugm-3 (TEOM FDMS),68.50240,R,ugm-3,1.000,R,ugm-3 (TEOM FDMS)
02-01-2014,13:00,9.700,R,ugm-3 (TEOM FDMS),8.700,R,ugm-3 (TEOM FDMS),66.40692,R,ugm-3,1.000,R,ugm-3 (TEOM FDMS)
02-01-2014,14:00,13.600,R,ugm-3 (TEOM FDMS),11.100,R,ugm-3 (TEOM FDMS),64.46111,R,ugm-3,2.500,R,ugm-3 (TEOM FDMS)
02-01-2014,15:00,10.100,R,ugm-3 (TEOM FDMS),6.800,R,ugm-3 (TEOM FDMS),63.51315,R,ugm-3,3.300,R,ugm-3 (TEOM FDMS)
02-01-2014,16:00,10.300,R,ugm-3 (TEOM FDMS),8.300,R,ugm-3 (TEOM FDMS),67.30498,R,ugm-3,2.000,R,ugm-3 (TEOM FDMS)
02-01-2014,17:00,13.800,R,ugm-3 (TEOM FDMS),8.500,R,ugm-3 (TEOM FDMS),63.26369,R,ugm-3,5.300,R,ugm-3 (TEOM FDMS)
02-01-2014,18:00,12.400,R,ugm-3 (TEOM FDMS),8.100,R,ugm-3 (TEOM FDMS),55.33078,R,ugm-3,4.300,R,ugm-3 (TEOM FDMS)
02-01-2014,19:00,10.100,R,ugm-3 (TEOM FDMS),6.800,R,ugm-3 (TEOM FDMS),59.52175,R,ugm-3,3.300,R,ugm-3 (TEOM FDMS)
02-01-2014,20:00,9.700,R,ugm-3 (TEOM FDMS),4.300,R,ugm-3 (TEOM FDMS),70.09896,R,ugm-3,5.400,R,ugm-3 (TEOM FDMS)
02-01-2014,21:00,6.500,R,ugm-3 (TEOM FDMS),0.600,R,ugm-3 (TEOM FDMS),72.59359,R,ugm-3,5.900,R,ugm-3 (TEOM FDMS)
02-01-2014,22:00,9.300,R,ugm-3 (TEOM FDMS),3.900,R,ugm-3 (TEOM FDMS),71.09681,R,ugm-3,5.400,R,ugm-3 (TEOM FDMS)
02-01-2014,23:00,8.100,R,ugm-3 (TEOM FDMS),4.100,R,ugm-3 (TEOM FDMS),72.29423,R,ugm-3,4.000,R,ugm-3 (TEOM FDMS)
02-01-2014,24:00,15.500,R,ugm-3 (TEOM FDMS),12.700,R,ugm-3 (TEOM FDMS),77.08391,R,ugm-3,2.800,R,ugm-3 (TEOM FDMS)
03-01-2014,01:00,21.000,R,ugm-3 (TEOM FDMS),16.300,R,ugm-3 (TEOM FDMS),81.22499,R,ugm-3,4.700,R,ugm-3 (TEOM FDMS)
03-01-2014,02:00,21.600,R,ugm-3 (TEOM FDMS),13.800,R,ugm-3 (TEOM FDMS),81.82370,R,ugm-3,7.800,R,ugm-3 (TEOM FDMS)
03-01-2014,03:00,16.700,R,ugm-3 (TEOM FDMS),10.900,R,ugm-3 (TEOM FDMS),85.01682,R,ugm-3,5.800,R,ugm-3 (TEOM FDMS)
03-01-2014,04:00,20.600,R,ugm-3 (TEOM FDMS),15.100,R,ugm-3 (TEOM FDMS),84.86714,R,ugm-3,5.500,R,ugm-3 (TEOM FDMS)
03-01-2014,05:00,12.800,R,ugm-3 (TEOM FDMS),5.500,R,ugm-3 (TEOM FDMS),80.72607,R,ugm-3,7.300,R,ugm-3 (TEOM FDMS)
03-01-2014,06:00,5.100,R,ugm-3 (TEOM FDMS),2.800,R,ugm-3 (TEOM FDMS),77.23359,R,ugm-3,2.300,R,ugm-3 (TEOM FDMS)
03-01-2014,07:00,2.300,R,ugm-3 (TEOM FDMS),3.600,R,ugm-3 (TEOM FDMS),76.23574,R,ugm-3,-1.300,R,ugm-3 (TEOM FDMS)
03-01-2014,08:00,6.600,R,ugm-3 (TEOM FDMS),6.200,R,ugm-3 (TEOM FDMS),76.68477,R,ugm-3,0.400,R,ugm-3 (TEOM FDMS)
03-01-2014,09:00,5.600,R,ugm-3 (TEOM FDMS),6.300,R,ugm-3 (TEOM FDMS),76.03617,R,ugm-3,-0.700,R,ugm-3 (TEOM FDMS)
03-01-2014,10:00,5.400,R,ugm-3 (TEOM FDMS),5.800,R,ugm-3 (TEOM FDMS),76.38542,R,ugm-3,-0.400,R,ugm-3 (TEOM FDMS)
03-01-2014,11:00,5.600,R,ugm-3 (TEOM FDMS),6.900,R,ugm-3 (TEOM FDMS),74.33983,R,ugm-3,-1.300,R,ugm-3 (TEOM FDMS)
03-01-2014,12:00,6.500,R,ugm-3 (TEOM FDMS),7.200,R,ugm-3 (TEOM FDMS),72.54370,R,ugm-3,-0.700,R,ugm-3 (TEOM FDMS)
03-01-2014,13:00,8.900,R,ugm-3 (TEOM FDMS),7.000,R,ugm-3 (TEOM FDMS),71.54585,R,ugm-3,1.900,R,ugm-3 (TEOM FDMS)
03-01-2014,14:00,7.700,R,ugm-3 (TEOM FDMS),6.800,R,ugm-3 (TEOM FDMS),71.19660,R,ugm-3,0.900,R,ugm-3 (TEOM FDMS)
03-01-2014,15:00,6.600,R,ugm-3 (TEOM FDMS),6.000,R,ugm-3 (TEOM FDMS),69.60004,R,ugm-3,0.600,R,ugm-3 (TEOM FDMS)
03-01-2014,16:00,7.200,R,ugm-3 (TEOM FDMS),6.500,R,ugm-3 (TEOM FDMS),66.45681,R,ugm-3,0.700,R,ugm-3 (TEOM FDMS)
03-01-2014,17:00,4.700,R,ugm-3 (TEOM FDMS),3.900,R,ugm-3 (TEOM FDMS),66.25724,R,ugm-3,0.800,R,ugm-3 (TEOM FDMS)
03-01-2014,18:00,5.400,R,ugm-3 (TEOM FDMS),5.600,R,ugm-3 (TEOM FDMS),67.05552,R,ugm-3,-0.200,R,ugm-3 (TEOM FDMS)
03-01-2014,19:00,7.400,R,ugm-3 (TEOM FDMS),7.400,R,ugm-3 (TEOM FDMS),63.41337,R,ugm-3,0.000,R,ugm-3 (TEOM FDMS)
03-01-2014,20:00,9.300,R,ugm-3 (TEOM FDMS),8.200,R,ugm-3 (TEOM FDMS),64.16176,R,ugm-3,1.100,R,ugm-3 (TEOM FDMS)
03-01-2014,21:00,9.300,R,ugm-3 (TEOM FDMS),9.200,R,ugm-3 (TEOM FDMS),67.50455,R,ugm-3,0.100,R,ugm-3 (TEOM FDMS)
03-01-2014,22:00,7.800,R,ugm-3 (TEOM FDMS),7.100,R,ugm-3 (TEOM FDMS),66.55660,R,ugm-3,0.700,R,ugm-3 (TEOM FDMS)
03-01-2014,23:00,5.800,R,ugm-3 (TEOM FDMS),5.100,R,ugm-3 (TEOM FDMS),69.00133,R,ugm-3,0.700,R,ugm-3 (TEOM FDMS)
03-01-2014,24:00,3.300,R,ugm-3 (TEOM FDMS),3.600,R,ugm-3 (TEOM FDMS),69.25079,R,ugm-3,-0.300,R,ugm-3 (TEOM FDMS)
04-01-2014,01:00,4.700,R,ugm-3 (TEOM FDMS),5.000,R,ugm-3 (TEOM FDMS),68.05337,R,ugm-3,-0.300,R,ugm-3 (TEOM FDMS)
04-01-2014,02:00,9.700,R,ugm-3 (TEOM FDMS),4.900,R,ugm-3 (TEOM FDMS),58.93967,R,ugm-3,4.800,R,ugm-3 (TEOM FDMS)
04-01-2014,03:00,6.400,R,ugm-3 (TEOM FDMS),4.100,R,ugm-3 (TEOM FDMS),63.36348,R,ugm-3,2.300,R,ugm-3 (TEOM FDMS)
04-01-2014,04:00,11.200,R,ugm-3 (TEOM FDMS),10.300,R,ugm-3 (TEOM FDMS),69.25079,R,ugm-3,0.900,R,ugm-3 (TEOM FDMS)
04-01-2014,05:00,11.400,R,ugm-3 (TEOM FDMS),7.600,R,ugm-3 (TEOM FDMS),64.61079,R,ugm-3,3.800,R,ugm-3 (TEOM FDMS)
04-01-2014,06:00,8.000,R,ugm-3 (TEOM FDMS),3.900,R,ugm-3 (TEOM FDMS),56.62799,R,ugm-3,4.100,R,ugm-3 (TEOM FDMS)
04-01-2014,07:00,5.300,R,ugm-3 (TEOM FDMS),2.800,R,ugm-3 (TEOM FDMS),36.27185,R,ugm-3,2.500,R,ugm-3 (TEOM FDMS)
04-01-2014,08:00,5.300,R,ugm-3 (TEOM FDMS),3.800,R,ugm-3 (TEOM FDMS),48.69508,R,ugm-3,1.500,R,ugm-3 (TEOM FDMS)
04-01-2014,09:00,5.500,R,ugm-3 (TEOM FDMS),5.700,R,ugm-3 (TEOM FDMS),39.31529,R,ugm-3,-0.200,R,ugm-3 (TEOM FDMS)
04-01-2014,10:00,9.200,R,ugm-3 (TEOM FDMS),8.400,R,ugm-3 (TEOM FDMS),46.49981,R,ugm-3,0.800,R,ugm-3 (TEOM FDMS)
04-01-2014,11:00,0.600,R,ugm-3 (TEOM FDMS),3.100,R,ugm-3 (TEOM FDMS),63.41337,R,ugm-3,-2.500,R,ugm-3 (TEOM FDMS)
04-01-2014,12:00,1.200,R,ugm-3 (TEOM FDMS),2.900,R,ugm-3 (TEOM FDMS),67.80391,R,ugm-3,-1.700,R,ugm-3 (TEOM FDMS)
04-01-2014,13:00,4.900,R,ugm-3 (TEOM FDMS),3.400,R,ugm-3 (TEOM FDMS),68.85165,R,ugm-3,1.500,R,ugm-3 (TEOM FDMS)
04-01-2014,14:00,5.400,R,ugm-3 (TEOM FDMS),3.700,R,ugm-3 (TEOM FDMS),66.85595,R,ugm-3,1.700,R,ugm-3 (TEOM FDMS)
04-01-2014,15:00,2.500,R,ugm-3 (TEOM FDMS),2.900,R,ugm-3 (TEOM FDMS),63.96219,R,ugm-3,-0.400,R,ugm-3 (TEOM FDMS)
04-01-2014,16:00,0.800,R,ugm-3 (TEOM FDMS),1.800,R,ugm-3 (TEOM FDMS),57.17681,R,ugm-3,-1.000,R,ugm-3 (TEOM FDMS)
04-01-2014,17:00,5.100,R,ugm-3 (TEOM FDMS),5.900,R,ugm-3 (TEOM FDMS),50.09207,R,ugm-3,-0.800,R,ugm-3 (TEOM FDMS)
04-01-2014,18:00,7.000,R,ugm-3 (TEOM FDMS),7.000,R,ugm-3 (TEOM FDMS),44.65379,R,ugm-3,0.000,R,ugm-3 (TEOM FDMS)
04-01-2014,19:00,8.300,R,ugm-3 (TEOM FDMS),7.000,R,ugm-3 (TEOM FDMS),30.28475,R,ugm-3,1.300,R,ugm-3 (TEOM FDMS)
04-01-2014,20:00,6.700,R,ugm-3 (TEOM FDMS),6.300,R,ugm-3 (TEOM FDMS),15.31700,R,ugm-3,0.400,R,ugm-3 (TEOM FDMS)
04-01-2014,21:00,8.300,R,ugm-3 (TEOM FDMS),7.800,R,ugm-3 (TEOM FDMS),38.86626,R,ugm-3,0.500,R,ugm-3 (TEOM FDMS)
04-01-2014,22:00,4.500,R,ugm-3 (TEOM FDMS),5.900,R,ugm-3 (TEOM FDMS),40.81207,R,ugm-3,-1.400,R,ugm-3 (TEOM FDMS)
04-01-2014,23:00,7.000,R,ugm-3 (TEOM FDMS),3.200,R,ugm-3 (TEOM FDMS),20.95485,R,ugm-3,3.800,R,ugm-3 (TEOM FDMS)
04-01-2014,24:00,8.700,R,ugm-3 (TEOM FDMS),7.600,R,ugm-3 (TEOM FDMS),34.92475,R,ugm-3,1.100,R,ugm-3 (TEOM FDMS)
05-01-2014,01:00,6.100,R,ugm-3 (TEOM FDMS),5.200,R,ugm-3 (TEOM FDMS),22.95055,R,ugm-3,0.900,R,ugm-3 (TEOM FDMS)
05-01-2014,02:00,3.200,R,ugm-3 (TEOM FDMS),2.500,R,ugm-3 (TEOM FDMS),37.98482,R,ugm-3,0.700,R,ugm-3 (TEOM FDMS)
05-01-2014,03:00,7.300,R,ugm-3 (TEOM FDMS),5.800,R,ugm-3 (TEOM FDMS),52.63659,R,ugm-3,1.500,R,ugm-3 (TEOM FDMS)
05-01-2014,04:00,7.800,R,ugm-3 (TEOM FDMS),6.400,R,ugm-3 (TEOM FDMS),38.71658,R,ugm-3,1.400,R,ugm-3 (TEOM FDMS)
05-01-2014,05:00,8.300,R,ugm-3 (TEOM FDMS),4.400,R,ugm-3 (TEOM FDMS),37.21981,R,ugm-3,3.900,R,ugm-3 (TEOM FDMS)
05-01-2014,06:00,7.800,R,ugm-3 (TEOM FDMS),5.600,R,ugm-3 (TEOM FDMS),54.43272,R,ugm-3,2.200,R,ugm-3 (TEOM FDMS)
05-01-2014,07:00,7.700,R,ugm-3 (TEOM FDMS),6.100,R,ugm-3 (TEOM FDMS),55.87960,R,ugm-3,1.600,R,ugm-3 (TEOM FDMS)
05-01-2014,08:00,6.000,R,ugm-3 (TEOM FDMS),4.600,R,ugm-3 (TEOM FDMS),56.42842,R,ugm-3,1.400,R,ugm-3 (TEOM FDMS)
05-01-2014,09:00,3.300,R,ugm-3 (TEOM FDMS),2.100,R,ugm-3 (TEOM FDMS),59.17251,R,ugm-3,1.200,R,ugm-3 (TEOM FDMS)
05-01-2014,10:00,6.400,R,ugm-3 (TEOM FDMS),5.600,R,ugm-3 (TEOM FDMS),65.60864,R,ugm-3,0.800,R,ugm-3 (TEOM FDMS)
05-01-2014,11:00,7.800,R,ugm-3 (TEOM FDMS),0.200,R,ugm-3 (TEOM FDMS),67.95359,R,ugm-3,7.600,R,ugm-3 (TEOM FDMS)
05-01-2014,12:00,3.400,R,ugm-3 (TEOM FDMS),-1.200,R,ugm-3 (TEOM FDMS),71.44606,R,ugm-3,4.600,R,ugm-3 (TEOM FDMS)
05-01-2014,13:00,5.100,R,ugm-3 (TEOM FDMS),-0.500,R,ugm-3 (TEOM FDMS),73.44176,R,ugm-3,5.600,R,ugm-3 (TEOM FDMS)
05-01-2014,14:00,2.100,R,ugm-3 (TEOM FDMS),1.200,R,ugm-3 (TEOM FDMS),73.04262,R,ugm-3,0.900,R,ugm-3 (TEOM FDMS)
05-01-2014,15:00,5.700,R,ugm-3 (TEOM FDMS),1.300,R,ugm-3 (TEOM FDMS),70.84735,R,ugm-3,4.400,R,ugm-3 (TEOM FDMS)
05-01-2014,16:00,8.100,R,ugm-3 (TEOM FDMS),6.400,R,ugm-3 (TEOM FDMS),71.69552,R,ugm-3,1.700,R,ugm-3 (TEOM FDMS)
05-01-2014,17:00,16.000,R,ugm-3 (TEOM FDMS),12.600,R,ugm-3 (TEOM FDMS),74.68907,R,ugm-3,3.400,R,ugm-3 (TEOM FDMS)
05-01-2014,18:00,15.300,R,ugm-3 (TEOM FDMS),10.500,R,ugm-3 (TEOM FDMS),77.03402,R,ugm-3,4.800,R,ugm-3 (TEOM FDMS)
05-01-2014,19:00,4.600,R,ugm-3 (TEOM FDMS),1.000,R,ugm-3 (TEOM FDMS),75.13811,R,ugm-3,3.600,R,ugm-3 (TEOM FDMS)
05-01-2014,20:00,4.200,R,ugm-3 (TEOM FDMS),3.300,R,ugm-3 (TEOM FDMS),78.03187,R,ugm-3,0.900,R,ugm-3 (TEOM FDMS)
05-01-2014,21:00,7.500,R,ugm-3 (TEOM FDMS),4.400,R,ugm-3 (TEOM FDMS),77.73252,R,ugm-3,3.100,R,ugm-3 (TEOM FDMS)
05-01-2014,22:00,8.700,R,ugm-3 (TEOM FDMS),7.600,R,ugm-3 (TEOM FDMS),76.08606,R,ugm-3,1.100,R,ugm-3 (TEOM FDMS)
05-01-2014,23:00,7.500,R,ugm-3 (TEOM FDMS),4.900,R,ugm-3 (TEOM FDMS),72.84305,R,ugm-3,2.600,R,ugm-3 (TEOM FDMS)
05-01-2014,24:00,10.700,R,ugm-3 (TEOM FDMS),7.400,R,ugm-3 (TEOM FDMS),74.38972,R,ugm-3,3.300,R,ugm-3 (TEOM FDMS)
06-01-2014,01:00,9.500,R,ugm-3 (TEOM FDMS),5.800,R,ugm-3 (TEOM FDMS),66.92247,R,ugm-3,3.700,R,ugm-3 (TEOM FDMS)
06-01-2014,02:00,10.200,R,ugm-3 (TEOM FDMS),6.700,R,ugm-3 (TEOM FDMS),75.43746,R,ugm-3,3.500,R,ugm-3 (TEOM FDMS)
06-01-2014,03:00,11.900,R,ugm-3 (TEOM FDMS),8.900,R,ugm-3 (TEOM FDMS),78.08176,R,ugm-3,3.000,R,ugm-3 (TEOM FDMS)
06-01-2014,04:00,17.700,R,ugm-3 (TEOM FDMS),14.300,R,ugm-3 (TEOM FDMS),78.48090,R,ugm-3,3.400,R,ugm-3 (TEOM FDMS)
06-01-2014,05:00,21.100,R,ugm-3 (TEOM FDMS),17.700,R,ugm-3 (TEOM FDMS),75.13811,R,ugm-3,3.400,R,ugm-3 (TEOM FDMS)
06-01-2014,06:00,18.500,R,ugm-3 (TEOM FDMS),15.100,R,ugm-3 (TEOM FDMS),71.29638,R,ugm-3,3.400,R,ugm-3 (TEOM FDMS)
06-01-2014,07:00,13.000,R,ugm-3 (TEOM FDMS),7.700,R,ugm-3 (TEOM FDMS),71.44606,R,ugm-3,5.300,R,ugm-3 (TEOM FDMS)
06-01-2014,08:00,10.400,R,ugm-3 (TEOM FDMS),8.100,R,ugm-3 (TEOM FDMS),71.59574,R,ugm-3,2.300,R,ugm-3 (TEOM FDMS)
06-01-2014,09:00,10.100,R,ugm-3 (TEOM FDMS),7.000,R,ugm-3 (TEOM FDMS),71.34628,R,ugm-3,3.100,R,ugm-3 (TEOM FDMS)
06-01-2014,10:00,10.200,R,ugm-3 (TEOM FDMS),8.600,R,ugm-3 (TEOM FDMS),71.84520,R,ugm-3,1.600,R,ugm-3 (TEOM FDMS)
06-01-2014,11:00,5.600,R,ugm-3 (TEOM FDMS),6.300,R,ugm-3 (TEOM FDMS),71.54585,R,ugm-3,-0.700,R,ugm-3 (TEOM FDMS)
06-01-2014,12:00,9.200,R,ugm-3 (TEOM FDMS),6.700,R,ugm-3 (TEOM FDMS),68.85165,R,ugm-3,2.500,R,ugm-3 (TEOM FDMS)
06-01-2014,13:00,9.400,R,ugm-3 (TEOM FDMS),7.800,R,ugm-3 (TEOM FDMS),66.60649,R,ugm-3,1.600,R,ugm-3 (TEOM FDMS)
06-01-2014,14:00,14.000,R,ugm-3 (TEOM FDMS),13.500,R,ugm-3 (TEOM FDMS),65.50885,R,ugm-3,0.500,R,ugm-3 (TEOM FDMS)
06-01-2014,15:00,14.500,R,ugm-3 (TEOM FDMS),12.100,R,ugm-3 (TEOM FDMS),66.45681,R,ugm-3,2.400,R,ugm-3 (TEOM FDMS)
06-01-2014,16:00,19.800,R,ugm-3 (TEOM FDMS),17.100,R,ugm-3 (TEOM FDMS),67.55445,R,ugm-3,2.700,R,ugm-3 (TEOM FDMS)
06-01-2014,17:00,17.800,R,ugm-3 (TEOM FDMS),16.100,R,ugm-3 (TEOM FDMS),69.30068,R,ugm-3,1.700,R,ugm-3 (TEOM FDMS)
06-01-2014,18:00,13.400,R,ugm-3 (TEOM FDMS),10.300,R,ugm-3 (TEOM FDMS),66.15746,R,ugm-3,3.100,R,ugm-3 (TEOM FDMS)
06-01-2014,19:00,12.300,R,ugm-3 (TEOM FDMS),10.300,R,ugm-3 (TEOM FDMS),65.95789,R,ugm-3,2.000,R,ugm-3 (TEOM FDMS)
06-01-2014,20:00,11.100,R,ugm-3 (TEOM FDMS),11.300,R,ugm-3 (TEOM FDMS),71.79531,R,ugm-3,-0.200,R,ugm-3 (TEOM FDMS)
06-01-2014,21:00,11.000,R,ugm-3 (TEOM FDMS),10.700,R,ugm-3 (TEOM FDMS),72.59359,R,ugm-3,0.300,R,ugm-3 (TEOM FDMS)
06-01-2014,22:00,15.600,R,ugm-3 (TEOM FDMS),15.200,R,ugm-3 (TEOM FDMS),71.84520,R,ugm-3,0.400,R,ugm-3 (TEOM FDMS)
06-01-2014,23:00,19.400,R,ugm-3 (TEOM FDMS),18.300,R,ugm-3 (TEOM FDMS),71.19660,R,ugm-3,1.100,R,ugm-3 (TEOM FDMS)
06-01-2014,24:00,13.800,R,ugm-3 (TEOM FDMS),12.200,R,ugm-3 (TEOM FDMS),68.30283,R,ugm-3,1.600,R,ugm-3 (TEOM FDMS)
07-01-2014,01:00,16.900,R,ugm-3 (TEOM FDMS),15.800,R,ugm-3 (TEOM FDMS),64.59416,R,ugm-3,1.100,R,ugm-3 (TEOM FDMS)
07-01-2014,02:00,10.800,R,ugm-3 (TEOM FDMS),9.800,R,ugm-3 (TEOM FDMS),68.71860,R,ugm-3,1.000,R,ugm-3 (TEOM FDMS)
07-01-2014,03:00,7.300,R,ugm-3 (TEOM FDMS),5.400,R,ugm-3 (TEOM FDMS),68.70197,R,ugm-3,1.900,R,ugm-3 (TEOM FDMS)
07-01-2014,04:00,5.100,R,ugm-3 (TEOM FDMS),4.200,R,ugm-3 (TEOM FDMS),65.85810,R,ugm-3,0.900,R,ugm-3 (TEOM FDMS)
07-01-2014,05:00,8.400,R,ugm-3 (TEOM FDMS),7.300,R,ugm-3 (TEOM FDMS),67.00563,R,ugm-3,1.100,R,ugm-3 (TEOM FDMS)
07-01-2014,06:00,6.800,R,ugm-3 (TEOM FDMS),5.700,R,ugm-3 (TEOM FDMS),67.05552,R,ugm-3,1.100,R,ugm-3 (TEOM FDMS)
07-01-2014,07:00,7.000,R,ugm-3 (TEOM FDMS),6.400,R,ugm-3 (TEOM FDMS),66.10756,R,ugm-3,0.600,R,ugm-3 (TEOM FDMS)
07-01-2014,08:00,6.000,R,ugm-3 (TEOM FDMS),3.600,R,ugm-3 (TEOM FDMS),66.50670,R,ugm-3,2.400,R,ugm-3 (TEOM FDMS)
07-01-2014,09:00,10.100,R,ugm-3 (TEOM FDMS),8.800,R,ugm-3 (TEOM FDMS),63.26369,R,ugm-3,1.300,R,ugm-3 (TEOM FDMS)
07-01-2014,10:00,10.200,R,ugm-3 (TEOM FDMS),8.000,R,ugm-3 (TEOM FDMS),63.96219,R,ugm-3,2.200,R,ugm-3 (TEOM FDMS)
07-01-2014,11:00,10.900,R,ugm-3 (TEOM FDMS),10.400,R,ugm-3 (TEOM FDMS),64.61079,R,ugm-3,0.500,R,ugm-3 (TEOM FDMS)
07-01-2014,12:00,9.300,R,ugm-3 (TEOM FDMS),7.900,R,ugm-3 (TEOM FDMS),64.41122,R,ugm-3,1.400,R,ugm-3 (TEOM FDMS)
07-01-2014,13:00,5.900,R,ugm-3 (TEOM FDMS),6.000,R,ugm-3 (TEOM FDMS),69.30068,R,ugm-3,-0.100,R,ugm-3 (TEOM FDMS)
07-01-2014,14:00,4.500,R,ugm-3 (TEOM FDMS),4.400,R,ugm-3 (TEOM FDMS),71.14671,R,ugm-3,0.100,R,ugm-3 (TEOM FDMS)
07-01-2014,15:00,5.300,R,ugm-3 (TEOM FDMS),4.900,R,ugm-3 (TEOM FDMS),68.80176,R,ugm-3,0.400,R,ugm-3 (TEOM FDMS)
07-01-2014,16:00,5.000,R,ugm-3 (TEOM FDMS),4.700,R,ugm-3 (TEOM FDMS),67.65423,R,ugm-3,0.300,R,ugm-3 (TEOM FDMS)
07-01-2014,17:00,9.500,R,ugm-3 (TEOM FDMS),8.200,R,ugm-3 (TEOM FDMS),69.00133,R,ugm-3,1.300,R,ugm-3 (TEOM FDMS)
07-01-2014,18:00,9.700,R,ugm-3 (TEOM FDMS),9.000,R,ugm-3 (TEOM FDMS),71.29638,R,ugm-3,0.700,R,ugm-3 (TEOM FDMS)
07-01-2014,19:00,11.900,R,ugm-3 (TEOM FDMS),11.600,R,ugm-3 (TEOM FDMS),66.35703,R,ugm-3,0.300,R,ugm-3 (TEOM FDMS)
07-01-2014,20:00,10.500,R,ugm-3 (TEOM FDMS),10.300,R,ugm-3 (TEOM FDMS),65.55875,R,ugm-3,0.200,R,ugm-3 (TEOM FDMS)
07-01-2014,21:00,12.400,R,ugm-3 (TEOM FDMS),10.900,R,ugm-3 (TEOM FDMS),71.29638,R,ugm-3,1.500,R,ugm-3 (TEOM FDMS)
07-01-2014,22:00,10.100,R,ugm-3 (TEOM FDMS),8.700,R,ugm-3 (TEOM FDMS),69.99918,R,ugm-3,1.400,R,ugm-3 (TEOM FDMS)
07-01-2014,23:00,10.100,R,ugm-3 (TEOM FDMS),8.300,R,ugm-3 (TEOM FDMS),68.15316,R,ugm-3,1.800,R,ugm-3 (TEOM FDMS)
07-01-2014,24:00,12.200,R,ugm-3 (TEOM FDMS),10.400,R,ugm-3 (TEOM FDMS),69.45036,R,ugm-3,1.800,R,ugm-3 (TEOM FDMS)
08-01-2014,01:00,6.800,R,ugm-3 (TEOM FDMS),7.000,R,ugm-3 (TEOM FDMS),66.39029,R,ugm-3,-0.200,R,ugm-3 (TEOM FDMS)
08-01-2014,02:00,8.400,R,ugm-3 (TEOM FDMS),9.000,R,ugm-3 (TEOM FDMS),69.78298,R,ugm-3,-0.600,R,ugm-3 (TEOM FDMS)
08-01-2014,03:00,12.700,R,ugm-3 (TEOM FDMS),12.900,R,ugm-3 (TEOM FDMS),68.30283,R,ugm-3,-0.200,R,ugm-3 (TEOM FDMS)
08-01-2014,04:00,14.900,R,ugm-3 (TEOM FDMS),13.400,R,ugm-3 (TEOM FDMS),68.35273,R,ugm-3,1.500,R,ugm-3 (TEOM FDMS)
08-01-2014,05:00,14.100,R,ugm-3 (TEOM FDMS),13.500,R,ugm-3 (TEOM FDMS),55.72992,R,ugm-3,0.600,R,ugm-3 (TEOM FDMS)
08-01-2014,06:00,12.700,R,ugm-3 (TEOM FDMS),11.500,R,ugm-3 (TEOM FDMS),52.28734,R,ugm-3,1.200,R,ugm-3 (TEOM FDMS)
08-01-2014,07:00,12.400,R,ugm-3 (TEOM FDMS),10.200,R,ugm-3 (TEOM FDMS),46.30024,R,ugm-3,2.200,R,ugm-3 (TEOM FDMS)
08-01-2014,08:00,10.100,R,ugm-3 (TEOM FDMS),9.400,R,ugm-3 (TEOM FDMS),53.28519,R,ugm-3,0.700,R,ugm-3 (TEOM FDMS)
08-01-2014,09:00,11.600,R,ugm-3 (TEOM FDMS),11.500,R,ugm-3 (TEOM FDMS),34.72518,R,ugm-3,0.100,R,ugm-3 (TEOM FDMS)
08-01-2014,10:00,8.000,R,ugm-3 (TEOM FDMS),6.700,R,ugm-3 (TEOM FDMS),18.85937,R,ugm-3,1.300,R,ugm-3 (TEOM FDMS)
08-01-2014,11:00,6.400,R,ugm-3 (TEOM FDMS),4.800,R,ugm-3 (TEOM FDMS),26.04389,R,ugm-3,1.600,R,ugm-3 (TEOM FDMS)
08-01-2014,12:00,7.700,R,ugm-3 (TEOM FDMS),9.900,R,ugm-3 (TEOM FDMS),43.15701,R,ugm-3,-2.200,R,ugm-3 (TEOM FDMS)
08-01-2014,13:00,9.300,R,ugm-3 (TEOM FDMS),9.300,R,ugm-3 (TEOM FDMS),55.63014,R,ugm-3,0.000,R,ugm-3 (TEOM FDMS)
08-01-2014,14:00,12.900,R,ugm-3 (TEOM FDMS),9.600,R,ugm-3 (TEOM FDMS),48.84476,R,ugm-3,3.300,R,ugm-3 (TEOM FDMS)
08-01-2014,15:00,12.400,R,ugm-3 (TEOM FDMS),7.900,R,ugm-3 (TEOM FDMS),38.11787,R,ugm-3,4.500,R,ugm-3 (TEOM FDMS)
08-01-2014,16:00,11.300,R,ugm-3 (TEOM FDMS),7.500,R,ugm-3 (TEOM FDMS),10.67700,R,ugm-3,3.800,R,ugm-3 (TEOM FDMS)
08-01-2014,17:00,7.400,R,ugm-3 (TEOM FDMS),3.900,R,ugm-3 (TEOM FDMS),9.77893,R,ugm-3,3.500,R,ugm-3 (TEOM FDMS)
08-01-2014,18:00,7.500,R,ugm-3 (TEOM FDMS),2.400,R,ugm-3 (TEOM FDMS),8.43183,R,ugm-3,5.100,R,ugm-3 (TEOM FDMS)
08-01-2014,19:00,4.700,R,ugm-3 (TEOM FDMS),2.500,R,ugm-3 (TEOM FDMS),5.98710,R,ugm-3,2.200,R,ugm-3 (TEOM FDMS)
08-01-2014,20:00,6.700,R,ugm-3 (TEOM FDMS),6.600,R,ugm-3 (TEOM FDMS),5.58796,R,ugm-3,0.100,R,ugm-3 (TEOM FDMS)
08-01-2014,21:00,9.800,R,ugm-3 (TEOM FDMS),6.800,R,ugm-3 (TEOM FDMS),6.73549,R,ugm-3,3.000,R,ugm-3 (TEOM FDMS)
08-01-2014,22:00,6.100,R,ugm-3 (TEOM FDMS),3.200,R,ugm-3 (TEOM FDMS),6.83527,R,ugm-3,2.900,R,ugm-3 (TEOM FDMS)
08-01-2014,23:00,5.600,R,ugm-3 (TEOM FDMS),3.700,R,ugm-3 (TEOM FDMS),9.28001,R,ugm-3,1.900,R,ugm-3 (TEOM FDMS)
08-01-2014,24:00,8.500,R,ugm-3 (TEOM FDMS),7.000,R,ugm-3 (TEOM FDMS),13.47098,R,ugm-3,1.500,R,ugm-3 (TEOM FDMS)
09-01-2014,01:00,4.400,R,ugm-3 (TEOM FDMS),1.800,R,ugm-3 (TEOM FDMS),15.30037,R,ugm-3,2.600,R,ugm-3 (TEOM FDMS)
09-01-2014,02:00,13.400,R,ugm-3 (TEOM FDMS),8.000,R,ugm-3 (TEOM FDMS),26.27672,R,ugm-3,5.400,R,ugm-3 (TEOM FDMS)
09-01-2014,03:00,8.600,R,ugm-3 (TEOM FDMS),6.200,R,ugm-3 (TEOM FDMS),25.09593,R,ugm-3,2.400,R,ugm-3 (TEOM FDMS)
09-01-2014,04:00,4.500,R,ugm-3 (TEOM FDMS),6.500,R,ugm-3 (TEOM FDMS),25.04604,R,ugm-3,-2.000,R,ugm-3 (TEOM FDMS)
09-01-2014,05:00,2.400,R,ugm-3 (TEOM FDMS),2.400,R,ugm-3 (TEOM FDMS),34.07658,R,ugm-3,0.000,R,ugm-3 (TEOM FDMS)
09-01-2014,06:00,5.100,R,ugm-3 (TEOM FDMS),6.000,R,ugm-3 (TEOM FDMS),43.50626,R,ugm-3,-0.900,R,ugm-3 (TEOM FDMS)
09-01-2014,07:00,8.900,R,ugm-3 (TEOM FDMS),7.000,R,ugm-3 (TEOM FDMS),31.03314,R,ugm-3,1.900,R,ugm-3 (TEOM FDMS)
09-01-2014,08:00,3.600,R,ugm-3 (TEOM FDMS),4.000,R,ugm-3 (TEOM FDMS),39.51486,R,ugm-3,-0.400,R,ugm-3 (TEOM FDMS)
09-01-2014,09:00,3.800,R,ugm-3 (TEOM FDMS),3.000,R,ugm-3 (TEOM FDMS),28.23916,R,ugm-3,0.800,R,ugm-3 (TEOM FDMS)
09-01-2014,10:00,8.300,R,ugm-3 (TEOM FDMS),8.600,R,ugm-3 (TEOM FDMS),44.10497,R,ugm-3,-0.300,R,ugm-3 (TEOM FDMS)
09-01-2014,11:00,6.700,R,ugm-3 (TEOM FDMS),7.200,R,ugm-3 (TEOM FDMS),50.74067,R,ugm-3,-0.500,R,ugm-3 (TEOM FDMS)
09-01-2014,12:00,6.600,R,ugm-3 (TEOM FDMS),8.200,R,ugm-3 (TEOM FDMS),55.63014,R,ugm-3,-1.600,R,ugm-3 (TEOM FDMS)
09-01-2014,13:00,9.800,R,ugm-3 (TEOM FDMS),8.200,R,ugm-3 (TEOM FDMS),57.22670,R,ugm-3,1.600,R,ugm-3 (TEOM FDMS)
09-01-2014,14:00,8.500,R,ugm-3 (TEOM FDMS),5.300,R,ugm-3 (TEOM FDMS),57.12691,R,ugm-3,3.200,R,ugm-3 (TEOM FDMS)
09-01-2014,15:00,8.900,R,ugm-3 (TEOM FDMS),5.400,R,ugm-3 (TEOM FDMS),60.56950,R,ugm-3,3.500,R,ugm-3 (TEOM FDMS)
09-01-2014,16:00,7.900,R,ugm-3 (TEOM FDMS),6.200,R,ugm-3 (TEOM FDMS),54.28304,R,ugm-3,1.700,R,ugm-3 (TEOM FDMS)
09-01-2014,17:00,11.100,R,ugm-3 (TEOM FDMS),8.400,R,ugm-3 (TEOM FDMS),21.25421,R,ugm-3,2.700,R,ugm-3 (TEOM FDMS)